User: anonymous   Login
Location: Key Biscayne
(25.6930°N, 80.1630°W)
Time: 23:30:14
(UTC-05:00)
Language:

CZ-2D R/B - Orbit

View from above orbital plane
View from above orbital plane
View from above satellite
View from above satellite

Ground track
Ground track

The orbit data is extracted from the following two-line orbital elements,

1 28738U 05024B   17052.64616410  .00000837  00000-0  53887-4 0  9995
2 28738  97.5123  91.7073 0013401  47.8655 312.3711 15.10983302638364
Epoch (UTC): 21 February 2017 15:30:28
Eccentricity: 0.0013401
inclination: 97.5123°
perigee height: 524 km
apogee height: 542 km
right ascension of ascending node: 91.7073°
argument of perigee: 47.8655°
revolutions per day: 15.10983302
mean anomaly at epoch: 312.3711°
orbit number at epoch: 63836

The dashed part of the orbit path shows where the satellite is in the earth's shadow,  

DLR